Weather History for Denver, CO

Change the Weather History Date:

Tuesday, January 3, 2012

  Actual Average Record
Temperature  
Mean Temperature 42 °F 30 °F  
Max Temperature 56 °F 43 °F 65 °F (1918)
Min Temperature 27 °F 17 °F -17 °F (1974)
Degree Days  
Heating Degree Days 23 35  
Month to date heating degree days 90 105  
Since 1 July heating degree days 2524 2573  
Cooling Degree Days 0 0  
Month to date cooling degree days 0 0  
Year to date cooling degree days 0 0  
Moisture  
Dew Point 17 °F    
Average Humidity 40    
Maximum Humidity 58    
Minimum Humidity 22    
Precipitation  
Precipitation 0.00 in 0.01 in 0.48 in (1874)
Month to date precipitation 0.00 0.04  
Year to date precipitation 0.00 0.04  
Snow  
Snow 0.00 in - - ()
Month to date snowfall 0  
Since 1 July snowfall 29.5  
Snow Depth 0.00 in    
Sea Level Pressure  
Sea Level Pressure 30.17 in    
Wind  
Wind Speed 9 mph (SSW)    
Max Wind Speed 22 mph    
Max Gust Speed 28 mph    
Visibility 10 miles    
Events      
T = Trace of Precipitation, MM = Missing Value Source: NWS Daily Summary

Daily Weather History Graph

Daily Weather History Graph

Search for Another Location

Airport:

Trip Planner

Search our weather history database for the weather conditions in past years. The results will help you decide how hot, cold, wet, or windy it might be!

Date:

Astronomy

Jan. 03, 2012 Rise Set
Actual Time 7:20 AM MST 4:45 PM MST
Civil Twilight 6:49 AM MST 5:16 PM MST
Nautical Twilight 6:16 AM MST 5:50 PM MST
Astronomical Twilight 5:43 AM MST 6:22 PM MST
Moon 12:34 PM MST (1/3) 2:13 AM MST (1/3)
Length of Visible Light 10h 26m
Length of Day
9h 25m
Waxing Gibbous, 73% of the Moon is Illuminated
Jan 3
Waxing Gibbous
Jan 9
Full
Jan 16
Last Quarter
Jan 23
New
Jan 30
First Quarter

Hourly Weather History & Observations

Time (MST) Temp. Windchill Dew Point Humidity Pressure Visibility Wind Dir Wind Speed Gust Speed Precip Events Conditions
12:53 AM 44.1 °F 36.8 °F 15.1 °F 31% 30.13 in 10.0 mi SSW 16.1 mph - N/A   Partly Cloudy
1:53 AM 41.0 °F 33.1 °F 16.0 °F 36% 30.14 in 10.0 mi SSW 15.0 mph - N/A   Scattered Clouds
2:53 AM 39.2 °F 35.9 °F 17.6 °F 42% 30.19 in 10.0 mi SE 4.6 mph - N/A   Scattered Clouds
3:53 AM 42.1 °F 34.5 °F 16.0 °F 35% 30.11 in 10.0 mi SW 15.0 mph - N/A   Scattered Clouds
4:53 AM 43.0 °F 36.0 °F 16.0 °F 34% 30.13 in 10.0 mi SW 13.8 mph - N/A   Scattered Clouds
5:53 AM 42.1 °F 36.1 °F 16.0 °F 35% 30.15 in 10.0 mi SSW 10.4 mph - N/A   Scattered Clouds
6:53 AM 42.8 °F 38.0 °F 15.8 °F 34% 30.19 in 10.0 mi WSW 8.1 mph - N/A   Mostly Cloudy
7:53 AM 50.0 °F - 14.0 °F 24% 30.13 in 10.0 mi NW 16.1 mph - N/A   Mostly Cloudy
8:53 AM 50.0 °F - 15.1 °F 25% 30.13 in 10.0 mi WNW 18.4 mph - N/A   Mostly Cloudy
9:53 AM 48.9 °F - 15.1 °F 26% 30.15 in 10.0 mi West 9.2 mph - N/A   Mostly Cloudy
10:53 AM 43.0 °F 38.8 °F 19.0 °F 38% 30.16 in 10.0 mi North 6.9 mph - N/A   Mostly Cloudy
11:25 AM 44.6 °F 41.4 °F 17.6 °F 34% 30.17 in 10.0 mi SSW 5.8 mph - N/A   Mostly Cloudy
11:53 AM 42.1 °F 38.4 °F 21.0 °F 43% 30.13 in 10.0 mi South 5.8 mph - N/A   Mostly Cloudy
12:53 PM 46.9 °F - 19.9 °F 34% 30.08 in 10.0 mi South 3.5 mph - N/A   Mostly Cloudy
1:53 PM 53.1 °F - 17.1 °F 24% 30.06 in 10.0 mi WSW 8.1 mph - N/A   Mostly Cloudy
2:53 PM 50.0 °F - 19.0 °F 29% 30.10 in 10.0 mi West 3.5 mph - N/A   Mostly Cloudy
3:53 PM 44.1 °F - 21.0 °F 40% 30.14 in 10.0 mi Calm Calm - N/A   Mostly Cloudy
4:53 PM 48.0 °F - 16.0 °F 28% 30.12 in 10.0 mi SSW 6.9 mph - N/A   Mostly Cloudy
5:53 PM 45.0 °F 41.2 °F 16.0 °F 31% 30.15 in 10.0 mi WSW 6.9 mph - N/A   Mostly Cloudy
6:53 PM 44.1 °F 39.0 °F 16.0 °F 32% 30.20 in 10.0 mi East 9.2 mph - N/A   Scattered Clouds
7:53 PM 41.0 °F 37.1 °F 17.1 °F 38% 30.23 in 10.0 mi SE 5.8 mph - N/A   Partly Cloudy
8:53 PM 42.1 °F - 15.1 °F 34% 30.24 in 10.0 mi Calm Calm - N/A   Partly Cloudy
9:53 PM 30.0 °F 21.1 °F 18.0 °F 61% 30.32 in 10.0 mi East 10.4 mph - N/A   Partly Cloudy
10:53 PM 30.0 °F 20.5 °F 18.0 °F 61% 30.36 in 10.0 mi ESE 11.5 mph - N/A   Partly Cloudy
11:53 PM 28.0 °F 17.5 °F 19.0 °F 69% 30.39 in 10.0 mi SSE 12.7 mph - N/A   Partly Cloudy